Location: Borkenes
(68.7830°N, 16.1830°E)
Time: 15:04:58
(UTC+01:00)

Vanguard 1 - Visible Passes

Search period start: 07 December 2019 00:00
Search period end: 17 December 2019 00:00
Orbit: 652 x 3831 km, 34.2° (Epoch: 06 December)

Date Brightness Start Highest point End Pass type
(mag) Time Alt. Az. Time Alt. Az. Time Alt. Az.
07 Dec 14.2 05:41:23 10° S 05:47:28 12° S 05:52:52 10° SSE visible
07 Dec 14.1 08:01:10 10° SSW 08:05:58 12° SSW 08:10:13 10° S visible
08 Dec 14.1 05:59:41 10° SSW 06:07:25 14° S 06:14:03 10° SSE visible
08 Dec 14.1 08:21:31 10° SW 08:25:50 11° SSW 08:29:41 10° S visible
09 Dec 14.2 04:03:39 10° SSE 04:08:33 11° SSE 04:13:06 10° SE visible
09 Dec 14.1 06:18:40 10° SSW 06:27:21 14° S 06:34:40 10° SSE visible
09 Dec 14.1 08:42:45 10° SW 08:45:37 11° SSW 08:48:16 10° SSW visible
10 Dec 14.2 04:20:25 10° S 04:28:24 13° SSE 04:35:31 10° SE visible
10 Dec 14.1 06:38:08 10° SW 06:47:16 15° S 06:54:55 10° SSE visible
11 Dec 14.1 04:38:30 10° SSW 04:48:15 15° SSE 04:56:47 10° SE visible
11 Dec 14.1 06:57:58 10° SW 07:07:08 15° SSW 07:14:50 10° SSE visible
12 Dec 14.2 02:45:00 10° SSE 02:49:18 11° SE 02:53:26 10° SE visible
12 Dec 14.1 04:57:15 10° SSW 05:08:08 16° S 05:17:32 10° SE visible
12 Dec 14.1 07:18:10 10° SW 07:26:57 14° SSW 07:34:25 10° S visible
13 Dec 14.1 03:00:50 10° S 03:09:00 13° SSE 03:16:38 10° SE visible
13 Dec 14.0 05:16:28 10° SSW 05:28:01 17° S 05:37:57 10° SSE visible
13 Dec 14.1 07:38:46 10° SW 07:46:42 14° SSW 07:53:35 10° S visible
14 Dec 14.1 03:18:29 10° S 03:28:46 15° SSE 03:38:13 10° SE visible
14 Dec 14.0 05:36:03 10° SW 05:47:53 17° S 05:58:04 10° SSE visible
14 Dec 14.1 07:59:56 10° SW 08:06:23 12° SSW 08:12:08 10° SSW visible
15 Dec 14.0 03:36:56 10° SSW 03:48:33 17° SSE 03:59:11 10° SE visible
15 Dec 14.0 05:55:56 10° SW 06:07:43 17° SSW 06:17:54 10° SSE visible
15 Dec 14.1 08:22:23 10° SW 08:25:58 11° SW 08:29:20 10° SSW visible
16 Dec 14.1 01:43:02 10° SSE 01:49:31 12° SE 01:55:53 10° SE visible
16 Dec 14.0 03:55:53 10° SSW 04:08:23 18° S 04:19:46 10° SE visible
16 Dec 14.0 06:16:07 10° SW 06:27:31 17° SSW 06:37:27 10° SSE visible
